| time (UTC) | temp F | wind direction | speed MPH | gust MPH | rain 1hr in | rain 24hr in | rain mn in | humidity % | barometer mb |
| 20260905180049 | 73 | 269 | 0.0 | 3.0 | 0.00 | 0.00 | 0.00 | 45 | 1012.5 |
| 20260905174558 | 73 | 0 | 0.0 | 6.0 | 0.00 | 0.00 | 0.00 | 43 | 1012.6 |
| 20260905173052 | 75 | 5 | 1.0 | 8.0 | 0.00 | 0.00 | 0.00 | 39 | 1012.5 |
| 20260905171602 | 73 | 115 | 2.0 | 4.0 | 0.00 | 0.00 | 0.00 | 44 | 1012.4 |
| 20260905170118 | 73 | 53 | 2.0 | 9.0 | 0.00 | 0.00 | 0.00 | 43 | 1012.5 |
| 20260905164556 | 73 | 58 | 2.0 | 7.0 | 0.00 | 0.00 | 0.00 | 44 | 1012.7 |
| 20260905163054 | 72 | 0 | 0.0 | 6.0 | 0.00 | 0.00 | 0.00 | 46 | 1012.8 |
| 20260905161553 | 71 | 59 | 2.0 | 3.0 | 0.00 | 0.00 | 0.00 | 47 | 1013.2 |
| 20260905160059 | 72 | 248 | 0.0 | 6.0 | 0.00 | 0.00 | 0.00 | 46 | 1013.2 |
| 20260905154555 | 71 | 51 | 1.0 | 6.0 | 0.00 | 0.00 | 0.00 | 47 | 1013.1 |
| 20260905153055 | 72 | 0 | 2.0 | 6.0 | 0.00 | 0.00 | 0.00 | 46 | 1013.1 |
| 20260905151604 | 71 | 52 | 3.0 | 8.0 | 0.00 | 0.00 | 0.00 | 48 | 1013.1 |
| 20260905150057 | 71 | 338 | 2.0 | 5.0 | 0.00 | 0.00 | 0.00 | 48 | 1013.1 |
| 20260905144657 | 70 | 316 | 1.0 | 8.0 | 0.00 | 0.00 | 0.00 | 51 | 1013.1 |
| 20260905143053 | 69 | 352 | 2.0 | 9.0 | 0.00 | 0.00 | 0.00 | 50 | 1013.0 |
| 20260905141556 | 68 | 82 | 0.0 | 6.0 | 0.00 | 0.00 | 0.00 | 51 | 1012.9 |
| 20260905140053 | 68 | 329 | 3.0 | 7.0 | 0.00 | 0.00 | 0.00 | 50 | 1013.0 |
| 20260905134554 | 68 | 360 | 2.0 | 6.0 | 0.00 | 0.00 | 0.00 | 51 | 1012.9 |
| 20260905133051 | 67 | 0 | 0.0 | 5.0 | 0.00 | 0.00 | 0.00 | 51 | 1013.2 |
| 20260905131600 | 67 | 51 | 2.0 | 6.0 | 0.00 | 0.00 | 0.00 | 50 | 1013.0 |
| 20260905130050 | 67 | 0 | 0.0 | 5.0 | 0.00 | 0.00 | 0.00 | 51 | 1013.0 |
| 20260905124553 | 67 | 0 | 0.0 | 2.0 | 0.00 | 0.00 | 0.00 | 49 | 1013.0 |
| 20260905123102 | 65 | 0 | 0.0 | 0.0 | 0.00 | 0.00 | 0.00 | 54 | 1013.2 |
| 20260905121552 | 63 | 0 | 0.0 | 3.0 | 0.00 | 0.00 | 0.00 | 61 | 1013.3 |
| 20260905120052 | 61 | 0 | 0.0 | 1.0 | 0.00 | 0.00 | 0.00 | 61 | 1013.2 |
| 20260905114548 | 60 | 0 | 0.0 | 2.0 | 0.00 | 0.00 | 0.00 | 61 | 1013.1 |
| 20260905113101 | 59 | 0 | 0.0 | 1.0 | 0.00 | 0.00 | 0.00 | 60 | 1012.8 |
| 20260905111558 | 59 | 0 | 0.0 | 1.0 | 0.00 | 0.00 | 0.00 | 59 | 1012.7 |
| 20260905110052 | 59 | 0 | 0.0 | 0.0 | 0.00 | 0.00 | 0.00 | 57 | 1012.5 |
| 20260905104550 | 59 | 0 | 0.0 | 0.0 | 0.00 | 0.00 | 0.00 | 56 | 1012.3 |
| 20260905103045 | 59 | 0 | 0.0 | 0.0 | 0.00 | 0.00 | 0.00 | 56 | 1012.1 |
| 20260905101618 | 59 | 0 | 0.0 | 0.0 | 0.00 | 0.00 | 0.00 | 55 | 1011.9 |
| 20260905100053 | 60 | 0 | 0.0 | 0.0 | 0.00 | 0.00 | 0.00 | 55 | 1011.9 |
| 20260905094549 | 60 | 0 | 0.0 | 0.0 | 0.00 | 0.01 | 0.00 | 55 | 1011.8 |
| 20260905093059 | 60 | 0 | 0.0 | 0.0 | 0.00 | 0.01 | 0.00 | 54 | 1011.8 |
| 20260905091551 | 60 | 0 | 0.0 | 0.0 | 0.00 | 0.01 | 0.00 | 54 | 1011.8 |
| 20260905090053 | 61 | 0 | 0.0 | 0.0 | 0.00 | 0.01 | 0.00 | 54 | 1011.9 |
| 20260905084617 | 61 | 0 | 0.0 | 0.0 | 0.00 | 0.01 | 0.00 | 54 | 1011.9 |
| 20260905083056 | 61 | 0 | 0.0 | 0.0 | 0.00 | 0.01 | 0.00 | 54 | 1011.9 |
| 20260905081556 | 62 | 0 | 0.0 | 0.0 | 0.00 | 0.01 | 0.00 | 54 | 1011.9 |
| 20260905080104 | 62 | 0 | 0.0 | 0.0 | 0.00 | 0.01 | 0.00 | 54 | 1012.1 |
| 20260905074555 | 63 | 0 | 0.0 | 0.0 | 0.00 | 0.01 | 0.00 | 54 | 1012.1 |
| 20260905073056 | 63 | 0 | 0.0 | 0.0 | 0.00 | 0.01 | 0.00 | 53 | 1011.9 |
| 20260905071603 | 64 | 0 | 0.0 | 0.0 | 0.00 | 0.01 | 0.00 | 53 | 1011.9 |
| 20260905064552 | 65 | 0 | 0.0 | 0.0 | 0.00 | 0.01 | 0.00 | 53 | 1012.3 |
| 20260905063050 | 65 | 0 | 0.0 | 0.0 | 0.00 | 0.01 | 0.00 | 53 | 1012.4 |
| 20260905061607 | 65 | 0 | 0.0 | 0.0 | 0.00 | 0.01 | 0.00 | 53 | 1012.5 |
| 20260905060059 | 65 | 0 | 0.0 | 0.0 | 0.00 | 0.01 | 0.00 | 53 | 1012.5 |
| 20260905054552 | 65 | 0 | 0.0 | 0.0 | 0.00 | 0.01 | 0.00 | 53 | 1012.6 |
| 20260905053105 | 65 | 0 | 0.0 | 0.0 | 0.00 | 0.01 | 0.00 | 53 | 1012.8 |
| 20260905051546 | 65 | 0 | 0.0 | 0.0 | 0.00 | 0.01 | 0.00 | 53 | 1013.0 |
| 20260905050056 | 65 | 0 | 0.0 | 0.0 | 0.00 | 0.01 | 0.00 | 53 | 1012.9 |
| 20260905044553 | 66 | 0 | 0.0 | 0.0 | 0.00 | 0.23 | 0.00 | 53 | 1013.0 |
| 20260905043049 | 66 | 0 | 0.0 | 0.0 | 0.00 | 0.23 | 0.00 | 53 | 1013.1 |
| 20260905041547 | 66 | 0 | 0.0 | 0.0 | 0.00 | 0.23 | 0.00 | 53 | 1013.1 |
| 20260905040053 | 66 | 0 | 0.0 | 0.0 | 0.00 | 0.23 | 0.00 | 53 | 1013.1 |
| 20260905034551 | 66 | 0 | 0.0 | 0.0 | 0.00 | 0.23 | 0.23 | 54 | 1013.0 |
| 20260905033059 | 66 | 0 | 0.0 | 0.0 | 0.00 | 0.23 | 0.23 | 54 | 1012.9 |
| 20260905031557 | 67 | 0 | 0.0 | 0.0 | 0.00 | 0.23 | 0.23 | 55 | 1012.8 |
| 20260905030059 | 67 | 0 | 0.0 | 0.0 | 0.00 | 0.23 | 0.23 | 55 | 1012.9 |
| 20260905024627 | 67 | 0 | 0.0 | 0.0 | 0.00 | 0.23 | 0.23 | 56 | 1013.0 |
| 20260905023058 | 67 | 0 | 0.0 | 0.0 | 0.00 | 0.23 | 0.23 | 55 | 1012.9 |
| 20260905021552 | 67 | 0 | 0.0 | 0.0 | 0.00 | 0.23 | 0.23 | 55 | 1013.0 |
| 20260905020053 | 67 | 0 | 0.0 | 0.0 | 0.00 | 0.23 | 0.23 | 55 | 1012.9 |
| 20260905014600 | 68 | 0 | 0.0 | 0.0 | 0.00 | 0.23 | 0.23 | 55 | 1012.8 |
| 20260905013057 | 68 | 0 | 0.0 | 1.0 | 0.00 | 0.23 | 0.23 | 56 | 1012.8 |
| 20260905011559 | 68 | 0 | 0.0 | 0.0 | 0.00 | 0.23 | 0.23 | 56 | 1012.8 |
| 20260905010050 | 68 | 0 | 0.0 | 0.0 | 0.00 | 0.23 | 0.23 | 56 | 1012.9 |
| 20260905004602 | 68 | 0 | 0.0 | 0.0 | 0.00 | 0.24 | 0.23 | 55 | 1013.0 |
| 20260905003055 | 69 | 0 | 0.0 | 0.0 | 0.00 | 0.24 | 0.23 | 56 | 1012.8 |
| 20260905001553 | 69 | 0 | 0.0 | 0.0 | 0.00 | 0.24 | 0.23 | 56 | 1012.5 |
| 20260905000055 | 70 | 0 | 0.0 | 1.0 | 0.00 | 0.24 | 0.23 | 54 | 1012.5 |
| 20260904234600 | 70 | 0 | 0.0 | 1.0 | 0.00 | 0.29 | 0.23 | 53 | 1012.2 |
| 20260904233101 | 71 | 0 | 0.0 | 0.0 | 0.00 | 0.29 | 0.23 | 52 | 1012.4 |
| 20260904231552 | 72 | 0 | 0.0 | 1.0 | 0.00 | 0.29 | 0.23 | 51 | 1012.4 |
| 20260904230052 | 73 | 0 | 0.0 | 0.0 | 0.00 | 0.29 | 0.23 | 49 | 1012.4 |
| 20260904224548 | 74 | 0 | 0.0 | 1.0 | 0.00 | 0.29 | 0.23 | 48 | 1012.5 |
| 20260904223059 | 75 | 0 | 0.0 | 0.0 | 0.00 | 0.29 | 0.23 | 47 | 1012.6 |
| 20260904221559 | 75 | 0 | 0.0 | 1.0 | 0.00 | 0.29 | 0.23 | 46 | 1012.6 |
| 20260904220052 | 76 | 0 | 0.0 | 2.0 | 0.00 | 0.29 | 0.23 | 44 | 1012.7 |
| 20260904214550 | 77 | 0 | 0.0 | 4.0 | 0.00 | 0.29 | 0.23 | 42 | 1012.6 |
| 20260904213055 | 78 | 0 | 0.0 | 2.0 | 0.00 | 0.29 | 0.23 | 43 | 1012.5 |
| 20260904211600 | 77 | 240 | 0.0 | 4.0 | 0.00 | 0.29 | 0.23 | 42 | 1012.3 |
| 20260904210048 | 77 | 0 | 0.0 | 3.0 | 0.00 | 0.29 | 0.23 | 42 | 1012.5 |
| 20260904204553 | 79 | 0 | 0.0 | 9.0 | 0.00 | 0.29 | 0.23 | 38 | 1012.4 |
| 20260904203054 | 80 | 234 | 0.0 | 7.0 | 0.00 | 0.29 | 0.23 | 38 | 1012.5 |
| 20260904201557 | 80 | 0 | 0.0 | 4.0 | 0.00 | 0.29 | 0.23 | 38 | 1012.7 |
| 20260904200055 | 79 | 254 | 1.0 | 7.0 | 0.00 | 0.29 | 0.23 | 37 | 1012.8 |
| 20260904194602 | 78 | 0 | 0.0 | 8.0 | 0.00 | 0.29 | 0.23 | 41 | 1013.1 |
| 20260904193053 | 79 | 61 | 0.0 | 3.0 | 0.00 | 0.29 | 0.23 | 41 | 1013.2 |
| 20260904191549 | 79 | 0 | 0.0 | 5.0 | 0.00 | 0.29 | 0.23 | 40 | 1013.4 |
| 20260904190058 | 79 | 279 | 1.0 | 6.0 | 0.00 | 0.29 | 0.23 | 37 | 1013.5 |
| 20260904184603 | 78 | 217 | 0.0 | 3.0 | 0.00 | 0.29 | 0.23 | 41 | 1013.5 |
| 20260904183049 | 79 | 0 | 0.0 | 5.0 | 0.00 | 0.29 | 0.23 | 39 | 1013.7 |
| 20260904181547 | 78 | 261 | 1.0 | 7.0 | 0.00 | 0.29 | 0.23 | 42 | 1013.8 |